Regional Weather Roundup
Issued by NWS

Home | Current Version | Previous Version | Graphics & Text | Print | Product List | Glossary On
Versions: 1 2 3 4 5 6 7 8 9 10 11 12 13 14 15 16 17 18 19 20 21 22 23 24 25 26 27 28 29 30 31 32 33 34 35 36 37 38 39 40 41 42 43 44 45 46 47 48 49 50
009
ASUS43 KLMK 290310
RWRKY
KENTUCKY REGIONAL WEATHER ROUNDUP
NATIONAL WEATHER SERVICE LOUISVILLE KY
1100 PM EDT WED SEP 28 2016

NOTE "FAIR" INDICATES FEW OR NO CLOUDS BELOW 12,000 FEET
WITH NO SIGNIFICANT WEATHER AND/OR OBSTRUCTIONS TO VISIBILITY.

KYZ001>023-026-027-061>063-070>075-290400-
WESTERN AND SOUTH CENTRAL KENTUCKY

CITY           SKY/WX    TMP DP  RH WIND       PRES   REMARKS
PADUCAH        CLEAR     56  45  66 N7        30.08R
HENDERSON      CLEAR     55  45  67 NW8       30.05R
OWENSBORO      CLEAR    N/A N/A N/A NW9       30.03S
HOPKINSVILLE   CLEAR     56  45  66 NW3       30.05R
BOWLING GREEN  PTCLDY    58  48  69 NW6       30.03R
GLASGOW        CLOUDY    57  57 100 NW3       30.02R
$$

KYZ024-025-028>034-038-045-046-053-290400-
NORTH CENTRAL KENTUCKY

CITY           SKY/WX    TMP DP  RH WIND       PRES   REMARKS
LOUISVILLE/SDF PTCLDY    57  50  77 W7        29.99S
LOUISVILLE/LOU CLEAR     55  51  86 CALM      30.00R
FORT KNOX      PTCLDY    54  50  85 W5        29.99R
$$

KYZ035>037-039>044-047>052-055>060-089>105-290400-
NORTHEAST KENTUCKY

CITY           SKY/WX    TMP DP  RH WIND       PRES   REMARKS
LEXINGTON      CLOUDY    56  52  86 NW7       29.99R
COVINGTON      PTCLDY    52  50  93 W3        29.97R
FRANKFORT      CLOUDY    56  51  84 CALM      29.98R
$$

KYZ054-064>069-076>088-106>120-290400-
SOUTHEAST KENTUCKY

CITY           SKY/WX    TMP DP  RH WIND       PRES   REMARKS
JACKSON        LGT RAIN  57  56  96 CALM      30.00R FOG
LONDON         LGT RAIN  57  53  86 SW6       30.01R
SOMERSET       CLOUDY    52  52 100 CALM      30.01F
MIDDLESBORO    CLOUDY    63  55  76 N5        30.00S
MONTICELLO     CLOUDY    55  53  93 W10       30.02S
$$





USA.gov is the U.S. government's official web portal to all federal, state and local government web resources and services.